Location: Burland Observatory
(39.4088°N, 105.4217°W)
Time: 07:44:29
(UTC-07:00)

Vanguard 3 - Pass Details

Date: 09 December 2019
Orbit: 507 x 3263 km, 33.4° (Epoch: 25 January)

Event Time Altitude Azimuth Distance (km) Brightness Sun altitude
Rises 08:42:47 0° 244° (WSW) 3,990 10.5 13.4°
Reaches altitude 10° 08:45:04 10° 241° (WSW) 3,299 10.2 13.7°
Maximum altitude 08:53:36 59° 163° (SSE) 2,120 10.0 14.9°
Drops below altitude 10° 09:08:41 10° 90° (E) 5,581 12.1 16.8°
Sets 09:13:51 0° 88° (E) 6,893 12.4 17.4°
